SCP
7 8 9 10 10 9 8 7 6 6 6 7 6 5 4 4 5 5 4 3 3 4 4 4 5 5 5 5 5 4 3 3 2 2 1 2 3 4 3 3 2 1 1
7 7 8 10 10 10 9 7 6 6 6 6 6 5 4 3 4 5 4 4 4 5 5 5 5 5 4 4 4 4 4 3 3 2 2 2 3 3 3 3 2 2 2
6 7 9 10 10 10 9 8 7 7 7 6 5 5 4 3 4 5 5 5 5 6 6 5 5 4 4 4 3 4 4 4 4 3 2 2 3 3 4 3 3 3 3
5 6 9 11 10 9 8 8 7 7 7 7 6 5 5 5 5 6 6 5 6 6 6 5 4 4 3 3 3 3 3 3 4 3 3 2 3 3 4 4 4 5 5
4 6 8 8 7 7 7 7 7 7 7 6 6 5 5 6 6 7 7 6 6 6 6 4 3 3 2 2 2 2 3 3 3 3 3 3 3 4 4 4 5 6 6
3 4 6 6 6 6 6 6 6 6 6 5 5 5 5 5 5 5 5 5 6 6 5 4 3 2 2 2 1 1 2 2 2 3 3 3 3 4 4 4 4 6 6
3 4 6 7 7 7 6 6 7 7 6 5 5 6 6 5 3 2 3 4 5 5 4 3 3 2 2 2 2 1 1 1 1 2 2 2 3 3 4 4 5 6 7
4 6 9 11 10 9 8 8 8 7 6 6 6 7 7 5 2 1 2 4 5 4 3 3 3 3 3 2 2 2 2 1 1 1 2 2 2 3 3 3 4 6 8
4 7 11 12 11 10 9 8 8 7 6 5 6 6 6 5 2 0 2 4 5 3 2 2 2 3 2 2 2 3 2 2 1 1 1 1 1 1 2 2 3 4 5
4 6 9 9 9 9 8 7 7 6 5 5 4 5 5 4 2 0 2 4 4 2 2 2 2 2 1 1 2 3 3 3 2 2 1 1 1 1 1 1 2 2 3
3 4 5 5 6 6 6 6 6 5 5 4 4 3 4 3 1 0 1 2 2 1 1 2 2 1 1 1 1 2 3 3 4 3 3 2 2 1 1 2 2 2 2
2 2 2 3 4 4 5 6 6 7 6 4 3 2 2 1 1 0 0 0 1 1 1 1 1 1 0 0 1 1 2 3 4 5 4 3 3 2 2 2 2 3 2
2 2 2 2 3 4 6 7 8 7 6 4 2 1 1 1 1 0 0 0 0 0 1 1 1 0 0 0 0 0 1 3 5 5 5 4 4 3 2 2 2 2 2
2 2 2 3 4 6 8 8 8 6 5 3 2 1 1 1 1 0 0 0 0 0 0 1 1 1 0 0 0 1 2 4 5 5 5 5 4 3 2 2 2 2 1
2 2 2 4 6 7 8 7 5 4 3 2 2 1 1 1 0 0 0 0 0 0 0 1 1 1 2 2 2 2 3 4 4 5 5 5 3 2 1 1 1 1 1
2 3 4 5 7 7 6 4 2 2 1 1 1 1 1 0 0 0 0 0 0 0 0 1 1 2 3 3 3 3 3 4 4 5 5 4 2 1 1 1 1 1 1
4 4 5 6 7 6 5 3 1 1 0 0 0 0 0 0 0 0 0 0 0 0 0 1 1 2 3 3 3 3 3 4 4 4 3 2 2 1 1 1 1 1 1
5 5 6 6 5 5 4 3 1 1 0 0 0 0 0 0 0 0 0 0 0 0 0 0 1 1 2 2 2 2 2 2 2 2 2 1 1 1 1 1 1 1 1
4 4 4 4 3 3 2 2 1 1 0 0 0 0 0 0 0 0 0 0 0 0 0 0 0 0 1 1 2 2 2 2 2 2 2 1 1 1 1 1 1 1 1
2 2 2 2 1 1 1 1 1 0 0 0 0 0 0 0 0 0 0 0 0 0 0 0 0 0 0 1 1 2 2 2 2 2 2 1 1 1 1 1 1 1 1
1 1 1 1 1 1 1 0 0 0 0 0 0 0 0 0 0 0 0 0 0 0 0 0 0 0 0 1 1 2 2 2 2 2 2 1 1 1 1 1 1 1 1
1 1 1 1 1 1 1 0 0 0 0 0 0 0 0 0 0 0 0 0 0 0 0 0 0 1 1 1 1 1 1 1 1 1 1 1 1 1 1 1 1 1 1
1 1 1 1 1 0 0 0 0 0 0 0 0 0 0 0 0 0 0 0 0 0 0 0 0 1 1 1 1 1 0 1 1 1 1 1 2 2 1 2 1 1 1
0 0 0 0 0 0 0 0 0 0 0 0 0 0 0 0 0 0 0 0 0 0 0 0 0 0 1 1 1 0 0 0 0 1 1 2 2 2 2 2 1 1 1
0 0 0 0 1 0 0 0 0 0 0 0 0 0 0 0 0 0 0 0 0 0 0 0 0 0 0 0 0 0 0 0 0 0 1 2 2 2 2 1 1 1 1
0 0 0 0 0 0 0 0 0 0 0 0 0 0 0 0 0 0 0 0 0 0 0 0 0 0 0 0 0 0 0 0 0 0 1 2 2 2 2 1 1 1 1
Wind_Speed
5 4 4 5 5 4 4 3 3 3 3 3 3 3 3 4 3 3 3 3 4 3 3 3 4 3 3 3 3 4 3 3 4 3 2 1 2 3 2 3 4 4 5
5 5 5 5 5 4 4 4 3 3 4 4 4 4 4 4 3 3 3 3 4 4 4 4 4 3 4 4 3 3 3 3 4 4 3 2 3 3 3 4 4 4 4
5 6 5 5 5 4 4 4 4 4 4 5 4 5 4 4 4 3 4 4 4 4 4 4 4 3 4 3 3 3 3 3 4 4 4 3 3 3 4 5 5 4 6
5 5 5 5 5 5 4 4 4 4 5 5 5 5 4 4 4 4 4 4 4 4 4 3 4 4 3 3 3 4 4 4 4 4 4 4 4 3 4 4 4 4 5
5 5 5 5 5 5 5 4 4 5 5 5 4 4 4 4 3 4 4 4 4 4 4 3 3 2 1 3 3 3 4 4 4 4 4 4 4 3 4 4 5 4 5
5 5 4 5 5 5 5 4 4 4 4 4 4 4 4 2 1 2 4 4 4 4 4 3 4 4 4 4 3 4 4 5 5 4 4 4 4 5 4 5 5 5 5
4 4 4 4 4 4 4 4 4 4 4 4 4 4 3 2 3 3 4 4 4 3 3 3 3 2 3 3 4 6 6 6 6 6 5 5 5 4 5 6 5 6 6
4 4 3 4 4 4 3 4 4 3 3 4 4 3 3 2 4 4 3 4 3 3 3 3 3 3 2 3 4 4 5 5 6 6 5 5 5 4 5 6 6 7 7
3 3 2 3 3 3 3 3 3 3 3 3 4 4 3 3 3 4 5 4 3 3 4 3 4 4 1 2 5 4 4 4 4 5 5 6 5 6 5 6 6 6 6
3 3 2 2 2 3 2 2 2 3 3 3 3 3 3 3 3 4 5 4 3 3 3 3 3 2 2 3 5 5 5 4 4 4 5 7 8 7 7 7 6 6 6
2 2 2 1 2 2 2 2 3 3 3 3 3 3 3 2 4 5 4 4 3 3 3 3 3 4 3 4 6 4 3 5 5 5 4 4 4 4 4 5 5 5 6
1 1 1 1 1 2 2 2 3 3 3 3 3 3 3 3 3 5 5 5 5 4 4 2 2 4 4 5 5 2 4 6 5 4 4 4 3 3 3 3 4 5 6
2 2 2 1 1 1 2 2 3 3 3 3 3 2 2 2 3 5 5 5 5 4 2 2 1 4 4 5 6 5 5 4 4 4 4 4 3 3 3 3 4 5 6
2 2 2 2 1 1 1 1 2 2 3 2 2 2 2 2 2 3 4 5 6 5 4 4 6 7 6 5 4 5 4 3 4 4 4 4 3 3 4 4 4 4 4
2 2 2 2 1 1 1 1 1 1 1 2 1 1 1 1 2 3 1 1 1 0 2 4 4 3 4 4 3 3 3 3 3 3 4 4 4 4 4 4 4 4 5
2 2 1 1 1 1 1 1 3 2 2 1 2 2 1 3 2 2 1 2 1 1 3 3 3 3 3 3 2 2 3 2 2 3 3 4 4 4 4 4 4 4 4
1 1 1 1 1 1 1 1 1 1 2 1 1 1 1 2 1 1 2 1 2 3 4 3 2 2 3 3 2 2 2 2 2 3 3 4 4 4 4 4 4 4 4
2 2 2 1 1 1 1 1 2 2 2 2 3 3 3 3 2 2 3 4 4 4 3 2 2 2 2 2 2 2 2 2 2 3 3 3 4 4 4 4 4 4 4
2 1 1 1 2 2 1 2 2 1 1 1 2 4 4 4 4 3 4 3 2 1 1 1 2 2 2 2 2 2 2 2 2 3 3 3 3 4 4 4 4 4 5
2 1 2 2 2 2 2 2 1 1 1 1 1 1 3 3 3 3 3 2 2 1 2 2 1 2 2 2 2 2 2 2 2 2 3 3 3 3 4 5 5 4 4
2 2 4 3 2 2 2 1 1 2 1 1 1 1 1 2 2 1 2 2 2 2 2 2 2 2 2 2 2 3 3 3 3 3 3 4 4 4 4 5 5 5 5
2 2 2 2 2 2 2 2 2 2 2 2 1 2 3 3 2 1 1 1 1 1 2 2 2 2 2 2 3 3 3 3 3 4 4 4 4 4 4 5 5 5 5
2 2 2 2 2 2 3 2 2 2 2 1 1 1 2 2 1 1 1 1 1 1 1 1 2 1 1 2 2 3 3 4 4 5 5 5 5 4 5 5 6 6 6
2 2 2 2 2 2 2 2 2 2 2 1 1 1 1 1 1 1 1 1 1 0 1 1 1 1 2 2 2 2 3 4 6 5 6 6 6 5 5 5 6 6 5
2 2 2 2 2 2 2 2 2 2 2 2 2 2 1 1 1 1 1 1 1 1 1 1 1 0 1 2 3 3 4 4 4 6 6 5 6 6 6 6 6 6 6
2 2 2 2 2 2 2 2 2 2 2 2 1 1 1 1 1 1 1 1 1 1 1 1 1 1 2 2 3 3 2 3 4 6 6 5 5 5 6 6 7 6 5
Wind_Direction
189 193 196 194 191 195 204 210 211 217 215 214 209 211 208 202 203 215 228 220 224 230 235 231 233 253 254 241 234 241 248 257 262 266 256 182 219 259 231 245 239 233 207
191 195 200 196 191 195 200 214 215 218 225 223 221 217 216 209 200 207 223 225 230 233 233 235 239 231 236 251 246 247 253 261 263 267 269 248 232 241 242 253 251 246 247
197 199 199 201 198 201 205 214 220 221 228 229 226 222 221 219 213 212 220 226 234 238 238 238 241 244 247 247 246 249 249 247 252 259 261 263 255 249 247 244 249 254 258
203 203 201 203 204 206 206 211 221 225 225 226 226 224 224 224 222 225 226 226 229 234 232 235 241 241 246 254 244 241 250 255 248 254 259 254 252 245 253 255 253 239 255
204 203 205 202 201 202 205 213 221 227 224 220 224 224 223 222 223 228 228 226 226 227 224 222 223 226 252 271 276 267 259 257 252 251 254 256 257 260 257 262 264 265 253
209 206 202 201 200 203 210 216 219 223 223 217 216 218 223 225 132 240 253 231 229 226 225 221 209 200 202 210 239 268 277 269 273 269 261 265 266 266 270 269 270 269 268
211 209 204 202 202 204 209 211 215 216 213 214 214 214 215 178 166 203 240 238 231 230 226 231 241 202 229 233 218 223 234 238 253 269 278 283 280 278 276 269 274 282 281
203 205 205 207 203 204 208 216 216 215 215 214 212 212 213 187 174 188 216 226 234 234 230 232 239 243 243 271 258 247 247 233 230 240 263 272 281 293 280 274 276 268 264
202 206 201 202 206 199 205 210 205 207 213 212 205 201 203 182 175 196 222 217 218 232 238 238 242 237 157 267 258 256 260 256 224 228 257 272 286 275 274 271 264 265 268
207 205 197 192 203 196 192 202 195 200 207 213 198 199 202 195 165 193 227 232 217 225 218 219 203 224 205 241 252 257 261 271 272 235 235 239 242 237 227 250 268 271 274
215 185 169 169 193 185 181 196 200 204 197 207 198 197 203 202 169 184 218 247 243 237 233 226 173 164 206 232 255 264 273 279 267 257 252 253 247 244 236 239 261 272 278
158 138 137 151 188 164 170 190 200 204 196 198 197 200 192 189 183 175 192 228 275 256 253 252 142 156 203 232 240 250 262 263 262 263 262 264 268 267 267 267 264 268 271
128 122 128 138 147 144 172 196 204 205 216 206 199 204 197 183 162 167 184 208 237 250 278 15 130 185 213 221 216 232 243 249 264 270 273 275 279 287 285 269 258 252 260
124 130 143 155 162 157 205 223 224 212 210 211 212 220 214 198 191 171 184 192 199 217 236 205 203 215 229 246 229 218 233 258 272 275 281 287 290 284 275 279 278 268 264
156 160 166 169 162 157 145 1 292 314 334 279 269 258 254 210 77 29 317 264 265 303 260 236 230 221 224 227 231 239 243 241 250 267 275 285 287 287 291 296 287 275 274
178 169 175 175 156 183 149 102 54 30 73 60 1 325 40 64 102 101 75 51 25 271 246 237 243 250 255 260 258 254 254 258 270 279 280 282 285 286 287 285 280 278 278
212 187 215 195 183 228 215 202 150 125 114 118 134 91 79 98 114 160 171 193 222 223 234 246 260 269 270 272 276 277 278 291 291 280 283 288 286 285 286 287 288 289 292
209 172 224 217 221 238 241 242 231 211 184 178 161 151 147 150 168 203 208 209 213 211 234 257 273 281 282 281 283 285 282 284 281 284 286 291 295 294 289 288 286 289 291
228 194 208 241 232 221 236 251 254 227 214 192 167 153 166 173 186 209 221 242 259 254 248 266 284 292 298 298 292 287 284 283 287 285 288 292 296 296 296 296 293 289 283
225 186 228 239 237 223 224 237 243 236 220 211 212 195 166 188 199 190 210 242 268 291 300 294 297 304 305 308 306 302 293 291 293 294 301 299 299 296 294 293 295 293 289
236 189 202 232 231 221 219 223 223 233 230 213 226 72 8 239 234 227 232 242 272 292 305 310 304 291 289 292 309 321 317 317 326 324 320 312 309 305 301 297 297 295 294
246 237 225 229 221 218 220 222 225 222 215 222 215 142 154 246 267 268 246 247 264 287 300 299 297 311 326 329 331 325 318 323 328 323 317 310 305 305 303 302 304 306 302
245 240 235 228 224 192 217 223 225 218 209 213 214 192 193 246 271 282 284 279 282 286 296 289 290 311 332 333 328 327 330 331 323 318 310 308 309 307 306 305 302 300 300
242 243 235 228 230 226 218 218 222 214 209 209 219 232 241 239 253 265 271 269 256 258 273 271 289 344 351 339 323 332 2 345 320 306 307 305 306 307 307 304 300 300 301
224 227 229 229 233 237 231 227 225 219 216 213 218 233 240 242 248 268 285 279 252 227 251 265 267 294 342 347 342 356 22 2 324 311 299 296 304 309 308 307 308 309 312
224 219 221 220 227 236 235 228 221 221 227 228 223 220 243 262 266 267 269 255 245 223 246 256 291 333 331 334 7 21 24 340 313 304 295 294 299 308 313 306 308 310 316